Location: Cleveland
(41.4990°N, 81.6960°W)
Time: 09:06:39
(UTC-04:00)

N. Korean satellite - Pass Details

Date: 04 October 2021
Orbit: 450 x 495 km, 97.3° (Epoch: 19 October)

Event Time Altitude Azimuth Distance (km) Brightness Sun altitude
Rises 06:17:10 0° 20° (NNE) 2,560 10.6 -13.9°
Reaches altitude 10° 06:19:20 10° 28° (NNE) 1,682 9.8 -13.5°
Maximum altitude 06:22:44 38° 98° (E) 770 8.2 -12.9°
Drops below altitude 10° 06:26:08 10° 167° (SSE) 1,684 9.4 -12.2°
Sets 06:28:18 0° 176° (S) 2,564 10.2 -11.8°
